RISAT-2B (44233 NORAD) Tracking and Keplerian Element Data

This shows tracking and keplerian element data for the satellite.

Feedback or suggestion? Click here.




ElementValue
Catalog44233
NameRISAT-2B
Epoch Orbit418
Epoch Day169.75615741
Epoch Year2019
RAAN341.3677
Inclination37.0043
Eccentricity0.0004795
Argument of Perigee208.852
Mean Anonmoly345.4164
Mean Motion15.04163098
Decay Rate1.79E-06
L11 44233U 19028A 19169.75615741 .00000179 00000-0 18557-4 0 9995
L22 44233 37.0043 341.3677 0004795 208.8520 345.4164 15.04163098 4183

Live tracking and technical data element details for RISAT-2B (NORAD 44233). RISAT-2B can be tracked NOW for your location showing map with azimuth and elevation plus other details from your city location.

Track the satellite on the map from your city or location and see movement details for azimuth, elevation, latitude, longitude, range, height, and movement on the map or in text.







IsCatalogInMostPopularTable: catalog: 44233, numindb: 11
Update: records affected: 1



GetName: 44233 RISAT-2B

Hit Count: updated at: Tue, 20 Aug 2019 19:00:09 GMT